Regional Weather Roundup
Issued by NWS

Home | Current Version | Previous Version | Graphics & Text | Print | Product List | Glossary On
Versions: 1 2 3 4 5 6 7 8 9 10 11 12 13 14 15 16 17 18 19 20 21 22 23 24 25 26 27 28 29 30 31 32 33 34 35 36 37 38 39 40 41 42 43 44 45 46 47 48 49 50
000
ASUS43 KMPX 252001
RWRMN
WEATHER ROUNDUP FOR MINNESOTA
NATIONAL WEATHER SERVICE TWIN CITIES/CHANHASSEN MN
300 PM CDT TUE APR 25 2017


NOTE: "FAIR" INDICATES FEW OR NO CLOUDS BELOW 12,000 FEET WITH NO
SIGNIFICANT WEATHER AND/OR OBSTRUCTIONS TO VISIBILITY. N/A MEANS
CURRENT SKY AND/OR WEATHER CONDITIONS ARE NOT AVAILABLE.

MNZ060>063-068>070-252100-
   Twin Cities Metro

CITY           SKY/WX    TMP DP  RH WIND       PRES   REMARKS
TWIN CITIES    LGT RAIN  53  47  79 VRB6      29.57S
ST PAUL        LGT RAIN  54  49  83 SW8       29.57R
CRYSTAL        LGT RAIN  54  48  80 S8        29.55S
BLAINE         CLOUDY    61  48  63 S13       29.56R
LAKEVILLE      LGT RAIN  48  48 100 CALM      29.56F
EDEN PRAIRIE   LGT RAIN  53  49  86 S6        29.56F FOG
SOUTH ST PAUL  LGT RAIN  54  47  80 SW5       29.57S
LAKE ELMO      PTSUNNY   59  48  67 SW9       29.57R
$$
MNZ001>005-007-008-013>017-022>024-027-028-252100-
   Northwest Minnesota

CITY           SKY/WX    TMP DP  RH WIND       PRES   REMARKS
BEMIDJI        CLOUDY    36  32  85 NE16G25   29.72R
HALLOCK        CLOUDY    36  27  69 N17G23    29.88R
ROSEAU         CLOUDY    34  28  80 NE23      29.87R WCI  22
WARROAD        CLOUDY    32  27  80 NE18G25   29.88R WCI  20
THIEF RVR FALL CLOUDY    35  28  75 N22G30    29.81S WCI  23
CROOKSTON      CLOUDY    37  30  75 NE18G24   29.81F
FOSSTON        CLOUDY    37  36  93 N23       29.74F
DETROIT LAKES  CLOUDY    39  36  87 N17       29.69R
MOORHEAD       CLOUDY    37  30  75 N26G33    29.73F
PARK RAPIDS    CLOUDY    40  32  73 N20G25    29.66R
MAHNOMEN       CLOUDY    37  33  87 N21G28    29.72R
$$
MNZ006-009>011-018-025>026-252100-
   North Central Minnesota

CITY           SKY/WX    TMP DP  RH WIND       PRES   REMARKS
BAUDETTE       CLOUDY    33  26  75 NE16G22   29.83R WCI  23
FLAG ISLAND    CLOUDY    30  25  80 NE23G29   29.89R WCI  17
INTL FALLS     CLOUDY    32  26  78 NE13G23   29.79S WCI  22
WASKISH        CLOUDY    36  30  80 NE16G23   29.77R
BIG FORK       CLOUDY    36  32  87 N12G17    29.72R
LONGVILLE      CLOUDY    41  36  81 N9G17     29.66R
GRAND RAPIDS   CLOUDY    42  36  79 N13G18    29.68S
CRANE LAKE     CLOUDY    32  30  93 N10G16    29.78S FOG     WCI  24
ORR            CLOUDY    34  30  86 N5        29.72R WCI  30
COOK           CLOUDY    37  36  93 N8        29.72S
WALKER         CLOUDY    37  33  85 N13G18    29.69R
$$
MNZ012-019>021-037-252100-
   Northeast Minnesota

CITY           SKY/WX    TMP DP  RH WIND       PRES   REMARKS
DULUTH         CLOUDY    54  41  61 SE13      29.60S
ELY            CLOUDY    45  37  76 NE9       29.69S
HIBBING        CLOUDY    43  38  82 N14G22    29.66S
EVELETH        CLOUDY    45  37  73 N10G20    29.67S
DULUTH HARBOR  CLOUDY    43  39  87 E15       29.63F
TWO HARBORS    CLOUDY    55  46  71 E10       29.61R
SILVER BAY     PTSUNNY   50  43  76 NE7       29.62F
GRAND MARAIS     N/A     50  42  74 N8        29.66S
G MARAIS ARPRT CLOUDY    43  36  75 N12       29.67S
$$
MNZ029>031-032-039>041-046>048-054>057-064-252100-
   West Central Minnesota

CITY           SKY/WX    TMP DP  RH WIND       PRES   REMARKS
FERGUS FALLS   CLOUDY    39  37  93 N12G21    29.66R
WHEATON        CLOUDY    39  34  81 N20G30    29.69R
MORRIS         CLOUDY    43  37  81 N17       29.62R
ALEXANDRIA     CLOUDY    47  38  71 N17G24    29.62R
ELBOW LAKE     CLOUDY    43  38  83 N16       29.63F
WADENA         CLOUDY    43  36  75 N14G21    29.63S
GLENWOOD       CLOUDY    50  39  66 N14G20    29.60S
APPLETON       CLOUDY    43  37  81 N21G26    29.61F
BENSON         CLOUDY    52  36  54 NE14      29.61R
ORTONVILLE     CLOUDY    37  34  87 N25       29.64S
MADISON        CLOUDY    43  41  93 N20G28    29.63S
WILLMAR        FAIR      55  45  67 NW7       29.57F
$$
MNZ033>034-036-042>043-049>051-058-059-252100-
   Central Minnesota

CITY           SKY/WX    TMP DP  RH WIND       PRES   REMARKS
ST CLOUD       CLOUDY    61  44  53 NE6       29.54S
SAUK CENTRE    FAIR      51  41  68 NW13      29.58S
PAYNESVILLE    CLOUDY    58  42  54 N6        29.57R
AITKIN         CLOUDY    57  37  47 N8G22     29.58S
PINE RIVER     CLOUDY    43  37  81 N17       29.68R
BRAINERD       CLOUDY    53  39  59 N18       29.60R
STAPLES        CLOUDY    45  36  70 N13       29.63R
LONG PRAIRIE   FAIR      50  39  66 NW14      29.59R
LITTLE FALLS   CLOUDY    55  41  58 N7        29.57R
LITCHFIELD     CLOUDY    61  46  59 CALM      29.56R
BUFFALO        CLOUDY    60  44  55 SE6       29.55S
MAPLE LAKE     CLOUDY    63  48  58 CALM      29.55S
HUTCHINSON     CLOUDY    57  48  70 CALM      29.56F
$$
MNZ037-044-045-052-053-252100-
   East Central Minnesota

CITY           SKY/WX    TMP DP  RH WIND       PRES   REMARKS
PRINCETON      CLOUDY    64  45  48 E6        29.55R
MORA           CLOUDY    63  41  45 NE5       29.55S
CAMBRIDGE      CLOUDY    66  48  52 S5        29.53R
RUSH CITY      CLOUDY    65  42  42 N8        29.53R
MOOSE LAKE     CLOUDY    61  36  39 E6        29.56F
HINCKLEY       FAIR      64  45  48 N12       29.54F
CLOQUET        CLOUDY    55  36  47 E13       29.60R
MCGREGOR       CLOUDY    57  43  58 NE13G20   29.59F
$$
MNZ071>073-080-081-089-090-097-098-252100-
   Southwest Minnesota

CITY           SKY/WX    TMP DP  RH WIND       PRES   REMARKS
MONTEVIDEO     CLOUDY    45  39  81 N16       29.59F
GRANITE FALLS  CLOUDY    46  40  81 NW15      29.61R
CANBY          CLOUDY    39  37  89 NW12G24   29.65R
MARSHALL       RAIN      39  37  92 N20       29.60S
REDWOOD FALLS  LGT RAIN  46  41  82 NW10      29.55F
OLIVIA         LGT RAIN  50  45  81 NW10      29.55F
PIPESTONE      RAIN      39  34  81 N12G20    29.57R
WINDOM         LGT RAIN  41  39  93 N14G21    29.56R
WORTHINGTON    LGT RAIN  40  39  97 N16       29.56R
JACKSON        DRIZZLE   41  41 100 VRB10     29.56R
TRACY          RAIN      40  39  97 N15       29.59R
SLAYTON        LGT RAIN  37  37 100 N17       29.58R
$$
MNZ065>067-074>077-082>085-091>093-252100-
   South Central Minnesota

CITY           SKY/WX    TMP DP  RH WIND       PRES   REMARKS
MANKATO        LGT RAIN  45  44  97 NE6       29.56F
NEW ULM        LGT RAIN  45  43  93 N7        29.53F
ST JAMES       LGT RAIN  43  43 100 N10       29.56R
FAIRMONT       LGT RAIN  43  42  97 NE8       29.56R
GLENCOE        DRIZZLE   53  50  92 S3        29.56S
FARIBAULT      RAIN      48  46  93 CALM      29.57
OWATONNA       LGT RAIN  48  45  87 N5        29.56S
WASECA         RAIN      45  43  93 N8        29.57R
ALBERT LEA     RAIN      46  46 100 NE5       29.56R
$$
MNZ078>079-086>088-094>096-252100-
   Southeast Minnesota

CITY           SKY/WX    TMP DP  RH WIND       PRES   REMARKS
ROCHESTER      LGT RAIN  52  51  97 N7        29.57S FOG
RED WING       RAIN      55  48  76 W6        29.57R
STANTON        RAIN      51  47  87 W3        29.56F
DODGE CENTER   LGT RAIN  50  48  93 N6        29.56R
WINONA         CLOUDY    63  50  63 CALM      29.55R
AUSTIN         RAIN      50  46  87 N6        29.56R
PRESTON        CLOUDY    57  51  81 N6        29.57R
$$
ABBREVIATIONS USED IN REMARKS
   TC - TEMPERATURES IN CELSIUS
  WCI - WIND CHILL INDEX
   HX - HEAT INDEX
  VSB - VISIBILITY
$$



USA.gov is the U.S. government's official web portal to all federal, state and local government web resources and services.